Change the Weather History Date:

Wednesday, May 1, 2013

  Actual Average Record
Temperature  
Mean Temperature 73 °F 69 °F  
Max Temperature 84 °F 79 °F 100 °F (1902)
Min Temperature 62 °F 59 °F 38 °F (1903)
Degree Days  
Heating Degree Days 0 1  
Month to date heating degree days 0 1  
Since 1 July heating degree days 1970 2263  
Cooling Degree Days 8 5  
Month to date cooling degree days 8 5  
Year to date cooling degree days 124 117  
Growing Degree Days 22 (Base 50)    
Moisture  
Dew Point 62 °F    
Average Humidity 70    
Maximum Humidity 93    
Minimum Humidity 47    
Precipitation  
Precipitation 0.00 in 0.15 in 4.03 in (1944)
Month to date precipitation 0.00 0.15  
Year to date precipitation 10.56 14.31  
Snow  
Snow 0.00 in - - ()
Month to date snowfall 0.0  
Since 1 July snowfall 1.0  
Snow Depth 0.00 in    
Sea Level Pressure  
Sea Level Pressure 29.89 in    
Wind  
Wind Speed 6 mph (ESE)    
Max Wind Speed 16 mph    
Max Gust Speed 21 mph    
Visibility 9 miles    
Events      
T = Trace of Precipitation, MM = Missing Value Source: NWS Daily Summary

Daily Weather History Graph

Daily Weather History Graph

Search for Another Location

Airport or City:

Trip Planner

Search our weather history database for the weather conditions in past years. The results will help you decide how hot, cold, wet, or windy it might be!

Date:

Astronomy

May. 01, 2013 Rise Set
Actual Time 6:34 AM CDT 8:02 PM CDT
Civil Twilight 6:08 AM CDT 8:29 PM CDT
Nautical Twilight 5:37 AM CDT 9:00 PM CDT
Astronomical Twilight 5:04 AM CDT 9:33 PM CDT
Moon 1:12 AM CDT (5/1) 12:14 PM CDT (5/1)
Length of Visible Light 14h 20m
Length of Day
13h 28m
Waning Gibbous, 59% of the Moon is Illuminated
May 1
Waning Gibbous
May 2
Last Quarter
May 9
New
May 17
First Quarter
May 24
Full

Hourly Weather History & Observations

Time (CDT) Temp. Heat Index Dew Point Humidity Pressure Visibility Wind Dir Wind Speed Gust Speed Precip Events Conditions
12:53 AM 66.9 °F - 62.1 °F 84% 29.83 in 10.0 mi SE 8.1 mph - N/A   Clear
1:53 AM 64.9 °F - 61.0 °F 87% 29.83 in 10.0 mi South 5.8 mph - N/A   Clear
2:53 AM 63.0 °F - 60.1 °F 90% 29.84 in 10.0 mi SSE 3.5 mph - N/A   Clear
3:53 AM 63.0 °F - 60.1 °F 90% 29.83 in 10.0 mi SE 6.9 mph - N/A   Clear
4:53 AM 63.0 °F - 60.1 °F 90% 29.83 in 10.0 mi SE 5.8 mph - N/A   Clear
6:26 AM 64.4 °F - 60.8 °F 88% 29.86 in 9.0 mi East 6.9 mph - N/A   Scattered Clouds
6:34 AM 64.4 °F - 62.6 °F 94% 29.86 in 8.0 mi East 5.8 mph - N/A   Mostly Cloudy
7:06 AM 64.4 °F - 62.6 °F 94% 29.87 in 2.0 mi ESE 10.4 mph - N/A   Overcast
7:25 AM 64.4 °F - 62.6 °F 94% 29.87 in 4.0 mi ESE 9.2 mph - N/A   Overcast
7:53 AM 66.0 °F - 64.0 °F 93% 29.86 in 8.0 mi SE 9.2 mph - N/A   Overcast
8:53 AM 68.0 °F - 64.0 °F 87% 29.88 in 10.0 mi South 5.8 mph - N/A   Overcast
9:09 AM 69.8 °F - 64.4 °F 83% 29.90 in 10.0 mi South 4.6 mph - N/A   Overcast
9:53 AM 72.0 °F - 62.1 °F 71% 29.90 in 10.0 mi SSE 6.9 mph - N/A   Mostly Cloudy
10:53 AM 73.9 °F - 63.0 °F 68% 29.90 in 10.0 mi Variable 5.8 mph - N/A   Scattered Clouds
11:41 AM 73.4 °F - 62.6 °F 69% 29.93 in 10.0 mi SW 6.9 mph - N/A   Mostly Cloudy
11:53 AM 73.9 °F - 63.0 °F 68% 29.92 in 10.0 mi SW 6.9 mph - N/A   Overcast
12:02 PM 73.4 °F - 62.6 °F 69% 29.93 in 10.0 mi SSW 4.6 mph - N/A   Overcast
1:53 PM 79.0 °F - 62.1 °F 56% 29.89 in 10.0 mi Calm Calm - N/A   Mostly Cloudy
2:53 PM 79.0 °F - 63.0 °F 58% 29.90 in 10.0 mi ENE 5.8 mph - N/A   Overcast
4:53 PM 82.0 °F 82.7 °F 61.0 °F 49% 29.86 in 10.0 mi NNW 5.8 mph - N/A   Partly Cloudy
5:53 PM 81.0 °F 81.7 °F 61.0 °F 50% 29.86 in 10.0 mi NE 10.4 mph - N/A   Partly Cloudy
6:53 PM 78.1 °F - 61.0 °F 56% 29.89 in 10.0 mi ENE 11.5 mph - N/A   Mostly Cloudy
7:53 PM 75.0 °F - 61.0 °F 62% 29.89 in 10.0 mi ENE 8.1 mph - N/A   Clear
8:53 PM 72.0 °F - 61.0 °F 68% 29.92 in 10.0 mi NE 8.1 mph - N/A   Clear
9:53 PM 70.0 °F - 61.0 °F 73% 29.94 in 10.0 mi NE 8.1 mph - N/A   Clear
10:53 PM 68.0 °F - 62.1 °F 81% 29.95 in 10.0 mi NE 8.1 mph - N/A   Clear
11:53 PM 66.9 °F - 62.1 °F 84% 29.96 in 10.0 mi NNE 5.8 mph - N/A   Scattered Clouds